Tracking 35055 objects as of 18-Aug-2026
HD Live streaming from Space Station
objects crossing your sky now

STARLINK-32596

Track STARLINK-32596 now!
10-day predictions
STARLINK-32596 is classified as:


NORAD ID: 62316
Int'l Code: 2024-239R
Launch date: December 13, 2024
Source: United States (US)
Launch site: AIR FORCE WESTERN TEST RANGE (AFWTR)
Your satellite tracking list
Your tracking list is empty




NASA's NSSDC Master Catalog

Two Line Element Set (TLE):
1 62316U 24239R   26229.83819543  .00018086  00000-0  54501-3 0  9991
2 62316  53.1575 162.7641 0001406 114.7711 245.3438 15.34407310 94095
Source of the keplerian elements: AFSPC